Regional Weather Roundup
Issued by NWS

Home | Current Version | Previous Version | Graphics & Text | Print | Product List | Glossary On
Versions: 1 2 3 4 5 6 7 8 9 10 11 12 13 14 15 16 17 18 19 20 21 22 23 24 25 26 27 28 29 30 31 32 33 34 35 36 37 38 39 40 41 42 43 44 45 46 47 48 49 50
000
ASUS43 KLOT 011006
RWRIL

ILLINOIS REGIONAL WEATHER ROUNDUP
NATIONAL WEATHER SERVICE CHICAGO/ROMEOVILLE IL
500 AM CDT SAT NOV 01 2014

NOTE: "FAIR" INDICATES FEW OR NO CLOUDS BELOW 12,000 FEET WITH NO
SIGNIFICANT WEATHER AND/OR OBSTRUCTIONS TO VISIBILITY.

* THESE STATIONS ARE NOT UNDER NWS QUALITY CONTROL. THEY ALSO MAY NOT
  REPORT WEATHER SUCH AS PRECIPITATION OR FOG.

ILZ001-002-007-009-015-016-024-011100-
NORTHWEST ILLINOIS

CITY           SKY/WX    TMP DP  RH WIND       PRES   REMARKS
MOLINE         CLEAR     28  19  69 N5        30.47R WCI  23
STERLING*      CLEAR     27  18  69 N8        30.44S WCI  18
SAVANNA*       CLEAR     26  18  72 N5        30.47R WCI  20
$$

ILZ003-004-008-010-011-017-018-011100-
NORTH CENTRAL ILLINOIS

CITY           SKY/WX    TMP DP  RH WIND       PRES   REMARKS
ROCKFORD       CLOUDY    30  19  63 N9        30.44R WCI  22
FREEPORT*      CLEAR     22  17  80 NW7       30.46S WCI  13
ROCHELLE*      MOCLDY    28  20  74 NW9       30.42S WCI  19
DE KALB*       CLOUDY    30  20  66 N8        30.39S WCI  22
PERU*          MOCLDY    30  21  69 NW12      30.42S WCI  20
$$

ILZ005-006-012>014-019>023-011100-
NORTHEAST ILLINOIS

CITY           SKY/WX    TMP DP  RH WIND       PRES   REMARKS
CHICAGO-OHARE  CLOUDY    35  23  61 N15       30.36R WCI  25
CHICAGO-MIDWAY CLOUDY    40  27  59 N13       30.35R
AURORA         CLOUDY    34  21  59 N14       30.39R WCI  25
LANSING*       CLOUDY    38  26  61 N15G24    30.33R WCI  30
JOLIET*        CLOUDY    35  23  62 N10       30.37R WCI  27
WAUKEGAN       CLOUDY    34  23  64 NW8       30.38R WCI  27
DUPAGE AIRPORT CLOUDY    34  22  61 N13       30.37R WCI  25
KANKAKEE*      CLOUDY    36  26  67 NW13G18   30.34S WCI  27
WHEELING       CLOUDY    37  23  56 N12       30.39R WCI  29
MORRIS*        MOCLDY    34  24  68 NW5       30.37R WCI  29
ROMEOVILLE*    CLOUDY    36  23  61 N10G17    30.36S WCI  28
NORTHERLY ISL    N/A     39  27  62 N21         N/A  WCI  29
$$

LMZ740>746-011100-
SOUTHERN LAKE MICHIGAN

STATION/POSITION SKY/WX   TEMP    WIND        PRES    VSBY  WAVE
                          AIR SEA DIR/SP/G                  HT/PER
                          (F)     (DEG/KT/KT) (MB)    (MI)  (FT/S)
SOUTHERN BUOY              37 48   10/ 21/ 27 1028.4R         9/ 8
WAUKEGAN HARBOR            36      10/ 11/ 15   N/A
HARRISON CRIB              40      20/ 26/ 33   N/A
BURNHAM HARBOR             40      30/ 21/ 25   N/A
CALUMET HARBOR             40     360/ 15/ 26 1026.2R
MICHIGAN CITY              38     360/ 25/ 33   N/A
$$

ILZ025>027-034>036-040-047-049-050-058-095>099-011100-
WEST-CENTRAL ILLINOIS

CITY           SKY/WX    TMP DP  RH WIND       PRES   REMARKS
QUINCY         CLEAR     24  19  81 N7        30.45R WCI  16
GALESBURG*     CLEAR     20  17  89 NW3       30.45R
MACOMB*        CLEAR     22  19  87 N7        30.47S WCI  14
JACKSONVILLE*  CLEAR     29  22  74 N8        30.43S WCI  21
PITTSFIELD*    CLEAR     29  21  73 N6        30.45S WCI  23
$$

ILZ028>032-037-038-041>044-048-051>054-059>061-011100-
CENTRAL ILLINOIS

CITY           SKY/WX    TMP DP  RH WIND       PRES   REMARKS
PONTIAC        PTCLDY    32  24  70 NW9       30.39R WCI  24
BLOOMINGTON    PTCLDY    29  21  71 N16       30.38R WCI  17
DECATUR        CLEAR     32  22  66 NW16      30.37R WCI  21
PEORIA         CLEAR     30  19  63 N7        30.43R WCI  23
LACON*         CLEAR     28  19  69 N8        30.43R WCI  20
LINCOLN*       CLEAR     30  23  74 NW5       30.41R WCI  25
SPRINGFIELD    CLEAR     31  20  63 N12       30.41R WCI  22
TAYLORVILLE    CLEAR     30  23  74 NW14      30.38S WCI  20
$$

ILZ033-039-045-046-055>057-062-063-011100-
EAST-CENTRAL ILLINOIS

CITY           SKY/WX    TMP DP  RH WIND       PRES   REMARKS
CHAMPAIGN      PTCLDY    33  23  66 N15       30.33R WCI  23
DANVILLE*      CLEAR     27  26  93 N3        30.29R
RANTOUL*       CLOUDY    35  25  67 N9        30.34R WCI  27
MATTOON        CLEAR     31  22  69 NW14      30.32R WCI  21
PARIS*         CLEAR     30  27  90 CALM      30.32R
$$

ILZ079-100>102-011100-
SOUTHWEST ILLINOIS

CITY           SKY/WX    TMP DP  RH WIND       PRES   REMARKS
ALTON          CLEAR     31  19  62 NW9       30.42R WCI  23
BELLEVILLE     CLEAR     31  22  69 N7        30.40R WCI  24
CAHOKIA*       CLEAR     34  22  61 N13       30.42R WCI  25
SPARTA*        CLEAR     31  22  68 NW10      30.40R WCI  23
$$

ILZ064>066-069>071-074>076-080>082-084>086-088>090-092>094-011100-
SOUTH-CENTRAL ILLINOIS

CITY           SKY/WX    TMP DP  RH WIND       PRES   REMARKS
CARBONDALE     CLEAR     31  22  69 NW9       30.37R WCI  23
CAIRO*         CLEAR     35  24  62 NW9       30.36R WCI  28
EFFINGHAM*     CLEAR     32  21  64 NW10G16   30.35R WCI  24
MARION         CLEAR     34  23  64 N5        30.36R WCI  30
MT. VERNON     CLEAR     34  19  55 N6        30.35S WCI  29
CENTRALIA*     CLEAR     32  22  66 N12       30.36S WCI  23
SALEM*         CLEAR     33  24  69 N10G16    30.36R WCI  25
METROPOLIS*    CLEAR     34  25  68 N6        30.33R WCI  29
$$

ILZ067-068-072-073-078-083-087-091-011100-
SOUTHEAST ILLINOIS

CITY           SKY/WX    TMP DP  RH WIND       PRES   REMARKS
LAWRENCEVILLE  PTCLDY    35  28  75 N16       30.31R WCI  25
FLORA*         CLEAR     32  24  72 NW7       30.35R WCI  25
FAIRFIELD*     CLEAR     32  24  71 NW7       30.33R WCI  26
HARRISBURG*    CLEAR     33  23  65 N12       30.35R WCI  25
ROBINSON*      PTCLDY    36  31  81 N8        30.32R WCI  30
CARMI*         CLOUDY    37  28  69 NW16G22   30.32R WCI  27
$$

ABBREVIATIONS USED IN REMARKS
   TC - TEMPERATURE IN CELSIUS
  WCI - WIND CHILL INDEX
   HX - HEAT INDEX
  VSB - VISIBILITY
$$




USA.gov is the U.S. government's official web portal to all federal, state and local government web resources and services.